Thursday, October 19, 2017, 7:08 AM EDT
Back to Local

KMPO, Mt Pocono Pocono Mountains

Location: Pocono Summit, PA, United States Lat: 41.133
Local Time: 7:08 AM EDT (11:08 GMT) Lon: -75.383
Time Zone: US/Eastern Elev: 1915 ft

Show me the last for .
Show Decoded

2017-10-19 06:53 METAR KMPO 191053Z AUTO 27005KT 10SM CLR 08/04 A3023 RMK AO2 SLP241 T00780044 =
2017-10-19 05:53 METAR KMPO 190953Z AUTO 28006KT 10SM CLR 08/05 A3024 RMK AO2 SLP243 T00780050 =
2017-10-19 04:53 METAR KMPO 190853Z AUTO 27007KT 10SM CLR 08/06 A3025 RMK AO2 SLP243 T00830056
                 55005 =
2017-10-19 03:53 METAR KMPO 190753Z AUTO 27005KT 10SM CLR 09/06 A3025 RMK AO2 SLP242 T00890056 =
2017-10-19 02:53 METAR KMPO 190653Z AUTO 29004KT 10SM CLR 08/05 A3026 RMK AO2 SLP245 T00830050 =
2017-10-19 01:53 METAR KMPO 190553Z AUTO 27005KT 10SM CLR 08/06 A3026 RMK AO2 SLP248 T00780056
                 10111 20072 58009 =
2017-10-19 00:53 METAR KMPO 190453Z AUTO 27004KT 10SM CLR 07/06 A3027 RMK AO2 SLP253 T00720056
                 401890039 =
2017-10-18 23:53 METAR KMPO 190353Z AUTO 28004KT 10SM CLR 09/06 A3028 RMK AO2 SLP256 T00940061 =
2017-10-18 22:53 METAR KMPO 190253Z AUTO 28004KT 10SM CLR 09/06 A3029 RMK AO2 SLP260 T00940061
                 58000 =
2017-10-18 21:53 METAR KMPO 190153Z AUTO 30003KT 10SM CLR 09/06 A3030 RMK AO2 SLP266 T00940061 =
2017-10-18 20:53 METAR KMPO 190053Z AUTO 26004KT 10SM CLR 09/07 A3030 RMK AO2 SLP269 T00890072 =
2017-10-18 19:53 METAR KMPO 182353Z AUTO 26004KT 10SM CLR 11/07 A3029 RMK AO2 SLP267 T01110072
                 10189 20106 53006 =
2017-10-18 18:53 METAR KMPO 182253Z AUTO 24004KT 10SM CLR 14/07 A3028 RMK AO2 SLP261 T01390072 =
2017-10-18 17:53 METAR KMPO 182153Z AUTO 28004KT 10SM CLR 17/05 A3027 RMK AO2 SLP255 T01670050 =
2017-10-18 16:53 METAR KMPO 182053Z AUTO 27010KT 10SM CLR 18/04 A3027 RMK AO2 SLP255 T01830044
                 56009 =
2017-10-18 15:53 METAR KMPO 181953Z AUTO 26008KT 10SM CLR 19/06 A3028 RMK AO2 SLP255 T01890056 =
2017-10-18 14:53 METAR KMPO 181853Z AUTO 25009KT 210V270 10SM CLR 19/06 A3029 RMK AO2 SLP259
                 T01890061 =
2017-10-18 13:53 METAR KMPO 181753Z AUTO 25007KT 210V270 10SM CLR 18/06 A3030 RMK AO2 SLP264
                 60000 T01830061 10183 20056 58011 =
2017-10-18 12:53 METAR KMPO 181653Z AUTO 27003KT 10SM CLR 18/06 A3033 RMK AO2 RAB16E26 SLP272
                 P0000 T01780061 =
2017-10-18 11:53 METAR KMPO 181553Z AUTO VRB05KT 10SM CLR 17/06 A3034 RMK AO2 SLP278 T01720061 =
2017-10-18 10:53 METAR KMPO 181453Z AUTO 28006KT 10SM CLR 14/07 A3034 RMK AO2 SLP276 T01440067
                 51010 =
2017-10-18 09:53 METAR KMPO 181353Z AUTO 30005KT 10SM CLR 12/05 A3033 RMK AO2 SLP281 T01170050 =
2017-10-18 08:53 METAR KMPO 181253Z AUTO 26005KT 10SM CLR 08/04 A3034 RMK AO2 SLP286 T00830039 =
2017-10-18 07:53 METAR KMPO 181153Z AUTO 28004KT 10SM CLR 05/03 A3030 RMK AO2 SLP276 T00500033
                 10072 20039 51012 =

Support USWX by starting your Amazon purchase here.